{"data":{"norad_id":62026,"intl_designator":"2024-213U","name":"STARLINK-32561","alt_names":[],"object_type":"PAYLOAD","status":"ACTIVE","operator":null,"country":"US","launch_date":"2024-11-18","launch_site_code":"AFWTR","launch_vehicle":null,"mission":null,"orbit_class":"UNKNOWN","rcs_meters":null,"size_class":null,"mass_kg":null,"dimensions":null,"purposes":["comms"],"wikipedia_slug":null,"has_3d_model":false,"image_url":null,"decayed_at":null,"tle_current":{"epoch":"2026-09-21T12:24:43.576992Z","epoch_age_seconds":97675,"freshness":"FRESH","line1":"1 62026U 24213U   26264.51717103  .00023124  00000+0  69358-3 0  9998","line2":"2 62026  53.1603 336.6340 0001183  85.0294 275.0843 15.34392145103169","mean_motion":15.34392145,"eccentricity":0.0001183,"inclination_deg":53.1603,"raan_deg":336.634,"arg_perigee_deg":85.0294,"mean_anomaly_deg":275.0843,"bstar":0.00069358,"rev_number":10316,"period_min":93.848238515324,"perigee_km":461.91731285973,"apogee_km":463.53586118442,"semimajor_km":6840.8635870221,"source":"CELESTRAK","updated_at":"2026-09-22T09:00:49.485807Z"}}}